Starlink 31359

operational
NORAD ID: 58945 Int'l Des: 2024-027 Owner: SPXS Country: US Constellation: starlink
LEOCIRCULAR

Starlink 31359について

説明を読み込み中...

リアルタイム位置

3D地球を読み込み中...

次回通過

高度履歴

Altitude vs Time

uPlot chart will show altitude changes over time

軌道要素

1 58945U 24027Q 25307.93303569 .00000994 00000-0 45702-4 0 9995
2 58945 53.1534 135.3144 0002104 92.2423 267.8819 15.30196954 98623
Epoch: Nov 3, 2025 • Age: 12 hours

現在のステータス

高度 487.3 km
速度 7.62 km/s
衛星直下点 -34.74°S, 103.17°W
打ち上げ日 Feb 10, 2024
運用期間 1.7 years
タイプ internet

技術仕様

分類 Payload
質量 730.00 kg
乾燥質量 700.00 kg
総質量 730.00 kg
長さ 0.30 m
直径 4.10 m
スパン 29.00 m
形状 Box + pan
製造者 SPXS
バスタイプ Starlink V2M
フェーズステータス In Orbit
所有者/国 SPXS/US

大規模コンステレーション

Loading constellations...